Gallatin Field
KBZN : now visible

Airfield :











YOU CAN JOIN US ON...

 
LOGIN :

Register | Disclaimer

   EN    FR    IT 

 









Legend :    VFR   Marginal VFR   IFR   Intensive IFR   Very Intensive IFR
Visi :
Ceiling :
>= 8 km
>= 3000ft
5 to 8 km
1000 to 3000 ft
1500m to 5 km
500 to 1000 ft
800 to 1500m
200 to 500 ft
< 800m
< 200 ft
Symbols :   Thunderstorms  Fog  Heavy snow  Heavy precipitations  Wind > 20 kt






- Airport Elevation : 4473 ft
- IATA code : BZN


KBZN - Gallatin Field

CURRENT METAR :
  • 081456Z 13005KT 10SM BKN100 M01/M04 A2999 RMK AO2 SLP181 T10111039 58008

EXPIRED METARs :
  • 081356Z 15008KT 10SM OVC100 M02/M04 A3001 RMK AO2 SLP185 T10221044
  • 081256Z 19006KT 10SM BKN100 M02/M04 A3002 RMK AO2 SLP182 T10171039

TAF KBZN
Valid from the 08 at 12:00 until the 09 at 18:00 UTC


081120Z 0812/0918 VRB04KT P6SM SCT080 BKN180
PROB30 0904/0906 4SM -RASN BR OVC025
FM090600 22009KT P6SM VCSH SCT050 BKN080
PROB30 0906/0912 4SM -SN BR BKN050
FM091200 22011KT P6SM BKN015 BKN045
FM091400 25008KT P6SM SCT045 BKN070
KZLC FIR / North America



MET'MAP, your aeronautical weather chart ! - Copyright ORBIFLY December 2007 - Disclaimer

ORBIFLY MET'MAP TEAM :

Programming & Development : Alexandra Zaïnal
Concept & original design : Baudouin d'Aumeries
Assistance for programming : Marc-Olivier Méhu
Technical & hardware support : Manuel Goepfert

Contact : metmap@orbifly.com




SOURCES & CREDITS :

   NOAA       Earth
Advisory